+ View the NASA Portal
+ Center for Near-Earth Object Studies
IMPORTANT:
The SSD Announcement email list is now available. Major changes are coming in the near future, including possible hostname and/or URL changes. To be notified of such changes, subscribe to this email list.
Please visit
this page
for more details.
Don't show this message again
JPL Small-Body Database Browser
Search:
[
help
]
357972 (2006 BU110)
Classification:
Main-belt Asteroid
SPK-ID:
2357972
[
Ephemeris
|
Orbit Diagram
|
Orbital Elements
|
Mission Design
|
Physical Parameters
|
Discovery Circumstances
]
[ show orbit diagram ]
Orbital Elements at Epoch 2458600.5 (2019-Apr-27.0) TDB
Reference:
JPL 10
(heliocentric ecliptic J2000)
Element
Value
Uncertainty (1-sigma)
Units
e
.07274559588934031
8.3248e-08
a
2.256589764958567
1.9122e-08
au
q
2.092432797828869
1.9431e-07
au
i
6.179005964844583
9.3411e-06
deg
node
338.0711013518269
5.7015e-05
deg
peri
135.591441932107
7.4661e-05
deg
M
345.2750581709285
4.6131e-05
deg
t
p
2458651.144050701678
(2019-Jun-16.64405070)
0.00015866
TDB
period
1238.161648734587
3.39
1.5738e-05
4.309e-08
d
yr
n
.2907536349295937
3.6957e-09
deg/d
Q
2.420746732088264
2.0513e-08
au
Orbit Determination Parameters
# obs. used (total)
115
data-arc span
8801 days (24.10 yr)
first obs. used
1994-09-12
last obs. used
2018-10-17
planetary ephem.
DE431
SB-pert. ephem.
SB431-N16
condition code
0
norm. resid. RMS
.54191
source
ORB
producer
Otto Matic
solution date
2018-Oct-31 04:57:14
Additional Information
Earth MOID
= 1.11373 au
Jupiter MOID
= 2.62879 au
T_jup
= 3.612
[ show covariance matrix ]
[
Ephemeris
|
Orbit Diagram
|
Orbital Elements
|
Mission Design
|
Physical Parameters
|
Discovery Circumstances
]
Physical Parameter Table
Parameter
Symbol
Value
Units
Sigma
Reference
Notes
absolute magnitude
H
17.6
n/a
MPO413356
357972 (2006 BU110)
Discovered 2006-Jan-25 by Spacewatch at Kitt Peak
Reference:
20130327/Numbers.arc
Last Updated:
2013-03-29
Alternate Designations
2006 BU110
= 1994 RX13
[
Ephemeris
|
Orbit Diagram
|
Orbital Elements
|
Mission Design
|
Physical Parameters
|
Discovery Circumstances
]
2019-Dec-16 13:57 UT
(server date/time)
Site Manager:
Ryan S. Park
Webmaster
:
Alan B. Chamberlin